CAPE
0 0 4 0 0 0 0 4 3 2 3 0 37 70 70 48 89 111 112 121 91 85
0 0 3 2 0 0 1 0 3 3 2 33 3 24 54 45 52 84 65 58 84 39
0 0 0 0 0 1 0 8 13 11 1 5 12 12 39 34 48 57 52 59 47 81
0 0 0 0 0 1 1 0 19 22 15 12 6 13 17 10 21 16 19 19 23 14
0 1 5 0 0 0 13 6 2 5 12 4 0 2 6 15 26 39 39 29 72 64
5 8 4 3 9 13 13 15 13 14 5 1 2 8 12 12 18 19 42 77 94 95
17 5 2 0 0 0 3 7 11 16 19 17 22 25 24 27 26 50 80 78 63 62
65 54 41 22 22 6 17 8 13 18 27 39 39 31 20 40 64 42 40 42 51 51
121 102 91 110 107 93 62 50 27 31 28 20 18 12 34 36 73 33 33 66 93 87
119 112 105 114 100 77 76 61 62 61 58 62 25 24 61 81 71 76 106 113 118 119
129 124 139 112 91 110 105 116 82 63 51 56 69 69 58 66 59 103 123 121 93 114
255 139 120 132 120 133 118 133 78 56 61 88 60 67 79 74 114 109 140 71 109 79
216 173 167 153 172 133 114 108 108 107 123 124 122 110 156 162 154 111 58 13 14 14
255 297 252 231 165 152 239 118 190 125 127 138 130 129 134 94 57 10 5 23 23 6
CIN
-0 -0 -0 -0 -0 -0 -0 -1 -0 -0 -0 -0 -7 -12 -60 -18 -34 -59 -54 -49 -49 -37
-0 -0 -1 -3 -0 -0 -1 -0 -2 -0 -1 -9 -0 -48 -14 -37 -36 -30 -36 -73 -59 -34
-0 -0 -0 -0 -0 -0 -0 -2 -1 -0 -0 -1 -0 -0 -55 -72 -51 -32 -27 -30 -41 -27
-0 -0 -0 -0 -0 -0 -1 -0 -10 -35 -29 -34 -29 -41 -62 -19 -49 -40 -30 -24 -14 -22
-0 -8 -12 -0 -0 -0 -9 -10 -9 -21 -35 -40 -3 -49 -46 -36 -14 -13 -15 -20 -3 -7
-5 -5 -7 -4 -2 -4 -4 -4 -3 -10 -18 -1 -1 -7 -6 -24 -16 -17 -5 -2 -2 -3
-277 -104 -4 -0 -0 -1 -8 -5 -47 -77 -67 -14 -10 -6 -5 -3 -3 -6 -6 -3 -1 -2
-244 -197 -170 -153 -117 -10 -103 -84 -79 -52 -35 -19 -4 -1 -28 -23 -5 -10 -7 -2 -2 -2
-172 -167 -134 -115 -114 -107 -96 -79 -67 -0 -1 -2 -1 -2 -58 -25 -0 -2 -2 -0 -0 -0
-193 -172 -150 -113 -100 -92 -96 -140 -132 -89 -65 -50 -72 -55 -20 -13 -9 -6 -0 -0 -0 -0
-168 -155 -140 -156 -203 -147 -134 -96 -96 -87 -52 -24 -33 -34 -37 -20 -7 -1 -0 -0 -0 -0
-117 -185 -200 -171 -165 -144 -134 -98 -107 -92 -80 -46 -32 -17 -12 -10 -0 -0 -0 -6 -0 -3
-197 -175 -152 -137 -117 -115 -123 -107 -76 -41 -17 -8 -4 -4 -0 -0 -1 -1 -27 -41 -32 -2
-168 -118 -84 -79 -86 -70 -43 -71 -34 -30 -13 -6 -6 -3 -0 -7 -12 -31 -1 -2 -0 -1
Wind_Speed
nan nan nan nan nan nan nan nan nan nan nan nan nan nan nan nan nan 13 13 17 nan nan
nan nan nan nan nan nan nan nan nan nan nan nan nan nan nan nan nan nan nan nan nan nan
nan nan nan nan nan nan nan nan nan nan nan nan nan nan nan nan nan nan nan nan nan nan
nan nan nan nan nan nan nan nan nan nan nan nan nan nan nan nan nan nan nan nan nan nan
nan nan nan nan nan nan nan nan nan nan nan nan nan nan nan nan nan nan nan nan nan nan
nan nan nan nan nan nan nan nan nan nan nan nan nan nan nan nan nan nan nan nan nan nan
nan nan nan nan nan nan nan nan nan nan nan nan nan nan nan nan nan nan nan nan nan nan
nan nan nan nan nan nan nan nan nan nan nan nan nan nan nan nan nan nan nan nan nan nan
24 23 nan 18 18 nan nan nan nan nan nan nan nan nan nan nan nan nan nan nan nan nan
25 26 24 23 23 nan nan nan nan nan nan nan nan nan nan nan nan nan 55 56 58 60
27 28 29 30 nan 38 38 40 nan nan nan nan nan nan nan nan nan 57 58 59 nan 63
35 38 40 39 39 38 40 40 nan nan nan nan nan nan nan nan 56 59 61 nan 66 nan
43 44 44 41 41 42 44 46 45 47 45 51 51 56 61 61 60 64 nan nan nan nan
49 55 50 45 43 44 47 50 49 50 49 54 56 60 66 nan nan nan nan nan nan nan
Wind_Direction
nan nan nan nan nan nan nan nan nan nan nan nan nan nan nan nan nan 275 268 272 nan nan
nan nan nan nan nan nan nan nan nan nan nan nan nan nan nan nan nan nan nan nan nan nan
nan nan nan nan nan nan nan nan nan nan nan nan nan nan nan nan nan nan nan nan nan nan
nan nan nan nan nan nan nan nan nan nan nan nan nan nan nan nan nan nan nan nan nan nan
nan nan nan nan nan nan nan nan nan nan nan nan nan nan nan nan nan nan nan nan nan nan
nan nan nan nan nan nan nan nan nan nan nan nan nan nan nan nan nan nan nan nan nan nan
nan nan nan nan nan nan nan nan nan nan nan nan nan nan nan nan nan nan nan nan nan nan
nan nan nan nan nan nan nan nan nan nan nan nan nan nan nan nan nan nan nan nan nan nan
310 313 nan 296 298 nan nan nan nan nan nan nan nan nan nan nan nan nan nan nan nan nan
304 307 296 286 285 nan nan nan nan nan nan nan nan nan nan nan nan nan 279 282 283 282
288 297 297 284 nan 264 267 270 nan nan nan nan nan nan nan nan nan 278 278 280 nan 284
286 277 276 274 271 271 271 269 nan nan nan nan nan nan nan nan 280 282 282 nan 282 nan
267 271 273 275 279 276 275 276 275 275 274 275 279 277 280 286 289 288 nan nan nan nan
267 269 268 271 274 279 279 278 277 276 278 278 278 279 278 nan nan nan nan nan nan nan